"2015-02-03 15:02:59+00",12.7,14.7,,22.1,-438,349,43,1027.76,23.2,202.7
"2015-02-03 15:07:59+00",15.8,18.8,,22.2,-608,352,68,1027.7,23.4,193.5
"2015-02-03 15:12:59+00",14.2,17.2,,22.5,-513,372,48,1027.74,23.4,234.3
"2015-02-03 15:17:59+00",11.7,13.7,,22.3,-471,237,27,1027.52,23.7,304.8
"2015-02-03 15:22:59+00",14.7,16.7,,22.3,-422,490,23,1027.56,23.8,214.5
"2015-02-03 15:27:59+00",11.0,13.0,,22.8,-414,261,70,1027.76,23.9,200.8
"2015-02-03 15:32:59+00",12.4,15.4,,22.9,-511,197,16,1027.85,24,221.9
"2015-02-03 15:37:59+00",13.1,15.1,,22.8,-506,302,34,1028.1,24.1,243.5
"2015-02-03 15:42:59+00",12.2,15.2,,22.9,-459,282,39,1027.94,24.3,256.3
"2015-02-03 15:47:59+00",13.9,16.9,,22.9,-542,309,44,1027.9,24.4,323
"2015-02-03 15:52:59+00",12.5,18.5,,23.2,-466,295,53,1027.82,24.4,251.4
"2015-02-03 15:57:59+00",13.9,15.9,,22.8,-591,173,21,1027.97,24.1,248.6
"2015-02-03 16:02:59+00",12.6,13.6,,22.9,-534,171,54,1028.09,24.3,276.8
"2015-02-03 16:07:59+00",12.9,15.9,,22.8,-519,240,22,1027.89,24,159.5
"2015-02-03 16:12:59+00",15.3,17.3,,23,-671,170,51,1028.02,24.2,321.2
"2015-02-03 16:17:59+00",13.5,15.5,,23,-599,69,29,1027.94,24.3,163.8
"2015-02-03 16:22:59+00",15.1,17.1,,23.1,-585,338,31,1027.87,24.3,219.1
"2015-02-03 16:27:59+00",11.9,13.9,,23.1,-495,205,71,1027.89,24.5,314.5
"2015-02-03 16:32:59+00",15.0,18.0,,23.4,-663,142,60,1027.78,25,369.1
"2015-02-03 16:37:59+00",12.9,14.9,,23.4,-518,266,37,1027.9,25,364.4
"2015-02-03 16:42:59+00",14.5,17.5,,23.6,-537,353,43,1027.68,25.2,365.5
"2015-02-03 16:47:59+00",11.1,13.1,,23.4,-479,23,3,1027.44,25.1,364.9
"2015-02-03 16:52:59+00",12.8,13.8,,23.4,-544,172,20,1027.34,25.2,369.8
"2015-02-03 16:57:59+00",11.6,12.6,,23.3,-502,114,24,1027.17,25.4,367.5
"2015-02-03 17:02:59+00",10.3,12.3,,23.5,-413,233,36,1027.14,25.4,370.8
"2015-02-03 17:07:59+00",13.8,15.8,,23.8,-533,290,9,1027.12,25.7,369.3
"2015-02-03 17:12:59+00",12.1,14.1,,23.8,-518,172,51,1026.86,25.6,368.6
"2015-02-03 17:17:59+00",14.0,17.0,,23.9,-569,241,24,1027.14,25.8,368.6
"2015-02-03 17:22:59+00",12.7,14.7,,24.3,-490,295,42,1027.01,26.2,369.8
"2015-02-03 17:27:59+00",13.2,15.2,,24.6,-532,242,34,1026.87,26.4,371.7
"2015-02-03 17:32:59+00",16.8,18.8,,24.5,-697,287,32,1026.91,26.3,370.7
"2015-02-03 17:37:59+00",10.9,12.9,,24.5,-466,121,18,1026.71,26.5,367.9
"2015-02-03 17:42:59+00",15.2,17.2,,24.9,-655,186,52,1026.5,26.8,366.8
"2015-02-03 17:47:59+00",14.0,17.0,,24.8,-604,196,32,1026.24,26.8,364.2
"2015-02-03 17:52:59+00",14.4,16.4,,25,-614,198,48,1026.24,27.1,364.6
"2015-02-03 17:57:59+00",10.7,11.7,,24.7,-462,105,11,1026.31,26.9,361.5
"2015-02-03 18:02:59+00",13.1,14.1,,24.9,-578,102,36,1026.23,26.9,359.4
"2015-02-03 18:07:59+00",13.5,15.5,,25.1,-587,132,22,1026.24,27,359.5
"2015-02-03 18:12:59+00",13.0,14.0,,25.2,-557,172,34,1026.08,27.2,351.2
"2015-02-03 18:17:59+00",11.9,13.9,,25.4,-476,249,50,1025.95,27.3,347.9
"2015-02-03 18:22:59+00",10.6,12.6,,25.3,-434,163,8,1025.86,27.3,345.6
"2015-02-03 18:27:59+00",10.8,11.8,,25.5,-442,186,4,1025.79,27.4,342.9
"2015-02-03 18:32:59+00",9.8,10.8,,26,-345,249,49,1025.66,27.7,340.4
"2015-02-03 18:37:59+00",11.2,12.2,,26.2,-458,204,39,1025.64,27.9,335
"2015-02-03 18:42:59+00",9.8,10.8,,26.3,-384,228,27,1025.61,28,330.1
"2015-02-03 18:47:59+00",10.0,12.0,,26.4,-388,217,14,1025.56,28,323.1
"2015-02-03 18:57:59+00",14.5,17.5,,27,-539,342,59,1025.5,28.4,312.1
